Time,TemperatureF,DewpointF,PressureIn,WindDirection,WindDirectionDegrees,WindSpeedMPH,WindSpeedGustMPH,Humidity,HourlyPrecipIn,Conditions,Clouds,dailyrainin,SoftwareType,DateUTC
2013-01-17 00:04:00,36.0,28.0,29.82,WSW,252,10.0,20.0,72,0.00,,,0.00,,2013-01-17 05:04:00,
2013-01-17 00:12:00,36.0,28.0,29.82,WSW,252,10.0,20.0,72,0.00,,,0.00,,2013-01-17 05:12:00,
2013-01-17 00:22:00,36.0,28.0,29.83,WNW,282,9.0,20.0,72,0.00,,,0.00,,2013-01-17 05:22:00,
2013-01-17 00:33:00,36.0,28.0,29.83,West,265,3.0,14.0,72,0.00,,,0.00,,2013-01-17 05:33:00,
2013-01-17 00:42:00,36.0,28.0,29.83,West,265,3.0,14.0,72,0.00,,,0.00,,2013-01-17 05:42:00,
2013-01-17 00:53:00,35.0,28.0,29.84,West,269,12.0,27.0,74,0.00,,,0.00,,2013-01-17 05:53:00,
2013-01-17 01:02:00,35.0,28.0,29.84,WSW,242,11.0,20.0,75,0.00,,,0.00,,2013-01-17 06:02:00,
2013-01-17 01:12:00,35.0,29.0,29.85,WSW,252,11.0,17.0,77,0.00,,,0.00,,2013-01-17 06:12:00,
2013-01-17 01:22:00,35.0,29.0,29.85,WSW,252,11.0,17.0,77,0.00,,,0.00,,2013-01-17 06:22:00,
2013-01-17 01:33:00,35.0,28.0,29.85,SW,236,8.0,20.0,76,0.00,,,0.00,,2013-01-17 06:33:00,
2013-01-17 01:42:00,35.0,28.0,29.85,SW,236,8.0,20.0,76,0.00,,,0.00,,2013-01-17 06:42:00,
2013-01-17 01:53:00,35.0,28.0,29.86,WSW,245,8.0,17.0,76,0.00,,,0.00,,2013-01-17 06:53:00,
2013-01-17 02:02:00,35.0,28.0,29.87,West,270,5.0,19.0,76,0.00,,,0.00,,2013-01-17 07:02:00,
2013-01-17 02:12:00,35.0,28.0,29.87,West,270,5.0,19.0,76,0.00,,,0.00,,2013-01-17 07:12:00,
2013-01-17 02:22:00,34.0,29.0,29.88,WSW,246,12.0,22.0,82,0.00,,,0.00,,2013-01-17 07:22:00,
2013-01-17 02:33:00,34.0,29.0,29.88,West,262,9.0,17.0,81,0.00,,,0.00,,2013-01-17 07:33:00,
2013-01-17 02:42:00,34.0,29.0,29.88,West,262,9.0,17.0,81,0.00,,,0.00,,2013-01-17 07:42:00,
2013-01-17 02:53:00,34.0,28.0,29.88,WSW,254,8.0,18.0,78,0.00,,,0.00,,2013-01-17 07:53:00,
2013-01-17 03:02:00,35.0,29.0,29.89,WSW,241,6.0,21.0,77,0.00,,,0.00,,2013-01-17 08:02:00,
2013-01-17 03:12:00,35.0,29.0,29.89,WSW,241,6.0,21.0,77,0.00,,,0.00,,2013-01-17 08:12:00,
2013-01-17 03:22:00,35.0,28.0,29.90,WSW,242,5.0,18.0,75,0.00,,,0.00,,2013-01-17 08:22:00,
2013-01-17 03:32:00,35.0,28.0,29.90,West,272,5.0,15.0,76,0.00,,,0.00,,2013-01-17 08:32:00,
2013-01-17 03:43:00,35.0,28.0,29.90,West,272,5.0,15.0,76,0.00,,,0.00,,2013-01-17 08:43:00,
2013-01-17 03:53:00,35.0,28.0,29.91,West,266,2.0,18.0,76,0.00,,,0.00,,2013-01-17 08:53:00,
2013-01-17 04:03:00,35.0,28.0,29.91,West,263,11.0,15.0,76,0.00,,,0.00,,2013-01-17 09:03:00,
2013-01-17 04:12:00,35.0,28.0,29.91,West,263,11.0,15.0,76,0.00,,,0.00,,2013-01-17 09:12:00,
2013-01-17 04:22:00,35.0,28.0,29.91,WNW,289,5.0,18.0,76,0.00,,,0.00,,2013-01-17 09:22:00,
2013-01-17 04:32:00,35.0,28.0,29.91,West,277,2.0,16.0,76,0.00,,,0.00,,2013-01-17 09:32:00,
2013-01-17 04:42:00,35.0,28.0,29.91,West,277,2.0,16.0,76,0.00,,,0.00,,2013-01-17 09:42:00,
2013-01-17 04:53:00,35.0,28.0,29.93,WSW,256,4.0,21.0,76,0.00,,,0.00,,2013-01-17 09:53:00,
2013-01-17 05:02:00,35.0,29.0,29.93,WSW,255,4.0,16.0,77,0.00,,,0.00,,2013-01-17 10:02:00,
2013-01-17 05:12:00,35.0,29.0,29.93,WSW,255,4.0,16.0,77,0.00,,,0.00,,2013-01-17 10:12:00,
2013-01-17 05:22:00,35.0,29.0,29.94,WSW,251,7.0,14.0,78,0.00,,,0.00,,2013-01-17 10:22:00,
2013-01-17 05:32:00,34.0,27.0,29.95,NW,307,15.0,19.0,75,0.00,,,0.00,,2013-01-17 10:32:00,
2013-01-17 05:42:00,34.0,27.0,29.95,NW,307,15.0,19.0,75,0.00,,,0.00,,2013-01-17 10:42:00,
2013-01-17 05:53:00,33.0,26.0,29.96,North,355,6.0,17.0,76,0.00,,,0.00,,2013-01-17 10:53:00,
2013-01-17 06:03:00,32.0,25.0,29.96,NW,308,7.0,16.0,76,0.00,,,0.00,,2013-01-17 11:03:00,
2013-01-17 06:12:00,32.0,25.0,29.96,NW,308,7.0,16.0,76,0.00,,,0.00,,2013-01-17 11:12:00,
2013-01-17 06:22:00,32.0,26.0,29.98,North,350,8.0,19.0,79,0.00,,,0.00,,2013-01-17 11:22:00,
2013-01-17 06:33:00,31.0,26.0,29.99,NNW,331,13.0,16.0,80,0.00,,,0.00,,2013-01-17 11:33:00,
2013-01-17 06:43:00,31.0,26.0,29.99,NNW,331,13.0,16.0,80,0.00,,,0.00,,2013-01-17 11:43:00,
2013-01-17 06:53:00,30.0,24.0,30.01,NNW,328,11.0,17.0,78,0.00,,,0.00,,2013-01-17 11:53:00,
2013-01-17 07:02:00,29.0,23.0,30.02,North,360,2.0,17.0,77,0.00,,,0.00,,2013-01-17 12:02:00,
2013-01-17 07:12:00,29.0,23.0,30.02,North,360,2.0,17.0,77,0.00,,,0.00,,2013-01-17 12:12:00,
2013-01-17 07:23:00,28.0,21.0,30.04,North,9,10.0,17.0,75,0.00,,,0.00,,2013-01-17 12:23:00,
2013-01-17 07:33:00,27.0,19.0,30.05,West,273,7.0,18.0,72,0.00,,,0.00,,2013-01-17 12:33:00,
2013-01-17 07:43:00,27.0,19.0,30.05,West,273,7.0,18.0,72,0.00,,,0.00,,2013-01-17 12:43:00,
2013-01-17 07:53:00,27.0,19.0,30.06,NW,322,6.0,15.0,72,0.00,,,0.00,,2013-01-17 12:53:00,
2013-01-17 08:03:00,27.0,20.0,30.07,NNW,329,12.0,16.0,73,0.00,,,0.00,,2013-01-17 13:03:00,
2013-01-17 08:12:00,27.0,20.0,30.07,NNW,329,12.0,16.0,73,0.00,,,0.00,,2013-01-17 13:12:00,
2013-01-17 08:23:00,27.0,20.0,30.07,NW,311,4.0,12.0,75,0.00,,,0.00,,2013-01-17 13:23:00,
2013-01-17 08:33:00,27.0,20.0,30.08,NNE,15,5.0,12.0,76,0.00,,,0.00,,2013-01-17 13:33:00,
2013-01-17 08:43:00,27.0,20.0,30.08,NNE,15,5.0,12.0,76,0.00,,,0.00,,2013-01-17 13:43:00,
2013-01-17 08:53:00,26.0,19.0,30.09,NE,36,5.0,14.0,76,0.00,,,0.00,,2013-01-17 13:53:00,
2013-01-17 09:03:00,26.0,19.0,30.10,NNE,15,3.0,12.0,76,0.00,,,0.00,,2013-01-17 14:03:00,
2013-01-17 09:12:00,26.0,19.0,30.10,NNE,15,3.0,12.0,76,0.00,,,0.00,,2013-01-17 14:12:00,
2013-01-17 09:23:00,25.0,19.0,30.11,NNE,33,6.0,12.0,76,0.00,,,0.00,,2013-01-17 14:23:00,
2013-01-17 09:33:00,25.0,18.0,30.12,NNE,17,4.0,11.0,75,0.00,,,0.00,,2013-01-17 14:33:00,
2013-01-17 09:43:00,25.0,18.0,30.12,NNE,17,4.0,11.0,75,0.00,,,0.00,,2013-01-17 14:43:00,
2013-01-17 09:53:00,25.0,18.0,30.13,North,355,3.0,12.0,74,0.00,,,0.00,,2013-01-17 14:53:00,
2013-01-17 10:03:00,25.0,18.0,30.14,NNE,17,5.0,10.0,75,0.00,,,0.00,,2013-01-17 15:03:00,
2013-01-17 10:12:00,25.0,18.0,30.14,NNE,17,5.0,10.0,75,0.00,,,0.00,,2013-01-17 15:12:00,
2013-01-17 10:23:00,25.0,18.0,30.14,NE,34,4.0,11.0,74,0.00,,,0.00,,2013-01-17 15:23:00,
2013-01-17 10:33:00,24.0,17.0,30.14,NE,47,7.0,10.0,74,0.00,,,0.00,,2013-01-17 15:33:00,
2013-01-17 10:43:00,24.0,17.0,30.14,NE,47,7.0,10.0,74,0.00,,,0.00,,2013-01-17 15:43:00,
2013-01-17 10:53:00,24.0,17.0,30.16,NE,35,0.0,7.0,74,0.00,,,0.00,,2013-01-17 15:53:00,
2013-01-17 11:03:00,24.0,17.0,30.16,NE,43,0.0,7.0,74,0.00,,,0.00,,2013-01-17 16:03:00,
2013-01-17 11:12:00,24.0,17.0,30.16,NE,43,0.0,7.0,74,0.00,,,0.00,,2013-01-17 16:12:00,
2013-01-17 11:23:00,24.0,17.0,30.16,ENE,59,5.0,9.0,75,0.00,,,0.00,,2013-01-17 16:23:00,
2013-01-17 11:33:00,24.0,17.0,30.16,NE,40,3.0,10.0,75,0.00,,,0.00,,2013-01-17 16:33:00,
2013-01-17 11:43:00,24.0,17.0,30.16,NE,40,3.0,10.0,75,0.00,,,0.00,,2013-01-17 16:43:00,
2013-01-17 11:53:00,23.0,16.0,30.16,NE,51,3.0,9.0,74,0.00,,,0.00,,2013-01-17 16:53:00,
2013-01-17 12:03:00,23.0,16.0,30.16,NE,35,7.0,9.0,74,0.00,,,0.00,,2013-01-17 17:03:00,
2013-01-17 12:13:00,23.0,16.0,30.16,NE,35,7.0,9.0,74,0.00,,,0.00,,2013-01-17 17:13:00,
2013-01-17 12:23:00,23.0,17.0,30.16,NNE,18,4.0,6.0,76,0.00,,,0.00,,2013-01-17 17:23:00,
2013-01-17 12:33:00,22.0,15.0,30.16,NE,43,2.0,6.0,75,0.00,,,0.00,,2013-01-17 17:33:00,
2013-01-17 12:43:00,22.0,15.0,30.16,NE,43,2.0,6.0,75,0.00,,,0.00,,2013-01-17 17:43:00,
2013-01-17 12:54:00,22.0,15.0,30.14,NNE,28,2.0,7.0,75,0.00,,,0.00,,2013-01-17 17:54:00,
2013-01-17 13:04:00,22.0,15.0,30.14,NE,42,0.0,9.0,74,0.00,,,0.00,,2013-01-17 18:04:00,
2013-01-17 13:13:00,22.0,15.0,30.14,NE,42,0.0,9.0,74,0.00,,,0.00,,2013-01-17 18:13:00,
2013-01-17 13:23:00,23.0,17.0,30.13,NE,43,3.0,7.0,76,0.00,,,0.00,,2013-01-17 18:23:00,
2013-01-17 13:33:00,23.0,16.0,30.14,NE,43,2.0,7.0,75,0.00,,,0.00,,2013-01-17 18:33:00,
2013-01-17 13:43:00,23.0,16.0,30.14,NE,43,2.0,7.0,75,0.00,,,0.00,,2013-01-17 18:43:00,
2013-01-17 13:53:00,22.0,15.0,30.13,ENE,60,4.0,9.0,73,0.00,,,0.00,,2013-01-17 18:53:00,
2013-01-17 14:03:00,22.0,16.0,30.14,NE,37,5.0,9.0,76,0.00,,,0.00,,2013-01-17 19:03:00,
2013-01-17 14:13:00,22.0,16.0,30.14,NE,37,5.0,9.0,76,0.00,,,0.00,,2013-01-17 19:13:00,
2013-01-17 14:23:00,22.0,15.0,30.13,NE,36,6.0,11.0,75,0.00,,,0.00,,2013-01-17 19:23:00,
2013-01-17 14:33:00,22.0,15.0,30.12,NE,42,4.0,10.0,74,0.00,,,0.00,,2013-01-17 19:33:00,
2013-01-17 14:43:00,22.0,15.0,30.12,NE,42,4.0,10.0,74,0.00,,,0.00,,2013-01-17 19:43:00,
2013-01-17 14:53:00,22.0,15.0,30.13,NE,42,4.0,11.0,75,0.00,,,0.00,,2013-01-17 19:53:00,
2013-01-17 15:03:00,22.0,16.0,30.13,ENE,62,4.0,10.0,76,0.00,,,0.00,,2013-01-17 20:03:00,
2013-01-17 15:12:00,22.0,16.0,30.13,ENE,62,4.0,10.0,76,0.00,,,0.00,,2013-01-17 20:12:00,
2013-01-17 15:23:00,22.0,15.0,30.13,NE,42,6.0,11.0,75,0.00,,,0.00,,2013-01-17 20:23:00,
2013-01-17 15:33:00,21.0,14.0,30.13,NE,51,6.0,11.0,74,0.00,,,0.00,,2013-01-17 20:33:00,
2013-01-17 15:43:00,21.0,14.0,30.13,NE,51,6.0,11.0,74,0.00,,,0.00,,2013-01-17 20:43:00,
2013-01-17 15:54:00,21.0,14.0,30.12,ENE,70,4.0,9.0,73,0.00,,,0.00,,2013-01-17 20:54:00,
2013-01-17 16:03:00,21.0,13.0,30.12,ENE,65,2.0,9.0,72,0.00,,,0.00,,2013-01-17 21:03:00,
2013-01-17 16:13:00,21.0,13.0,30.12,ENE,65,2.0,9.0,72,0.00,,,0.00,,2013-01-17 21:13:00,
2013-01-17 16:23:00,21.0,14.0,30.12,East,81,4.0,10.0,73,0.00,,,0.00,,2013-01-17 21:23:00,
2013-01-17 16:34:00,21.0,14.0,30.13,ENE,61,2.0,7.0,75,0.00,,,0.00,,2013-01-17 21:34:00,
2013-01-17 16:43:00,21.0,14.0,30.13,ENE,61,2.0,7.0,75,0.00,,,0.00,,2013-01-17 21:43:00,
2013-01-17 16:53:00,21.0,14.0,30.14,ENE,69,2.0,6.0,75,0.00,,,0.00,,2013-01-17 21:53:00,
2013-01-17 17:03:00,21.0,14.0,30.14,ENE,65,2.0,10.0,75,0.00,,,0.00,,2013-01-17 22:03:00,
2013-01-17 17:12:00,21.0,14.0,30.14,ENE,65,2.0,10.0,75,0.00,,,0.00,,2013-01-17 22:12:00,
2013-01-17 17:23:00,21.0,14.0,30.14,ESE,119,2.0,6.0,74,0.00,,,0.00,,2013-01-17 22:23:00,
2013-01-17 17:33:00,20.0,13.0,30.14,ESE,107,0.0,6.0,74,0.00,,,0.00,,2013-01-17 22:33:00,
2013-01-17 17:43:00,20.0,13.0,30.14,ESE,107,0.0,6.0,74,0.00,,,0.00,,2013-01-17 22:43:00,
2013-01-17 17:53:00,21.0,14.0,30.14,ESE,113,3.0,5.0,75,0.00,,,0.00,,2013-01-17 22:53:00,
2013-01-17 18:03:00,21.0,15.0,30.13,ESE,117,3.0,6.0,76,0.00,,,0.00,,2013-01-17 23:03:00,
2013-01-17 18:12:00,21.0,15.0,30.13,ESE,117,3.0,6.0,76,0.00,,,0.00,,2013-01-17 23:12:00,
2013-01-17 18:23:00,21.0,15.0,30.14,East,100,1.0,4.0,76,0.00,,,0.00,,2013-01-17 23:23:00,
2013-01-17 18:33:00,21.0,15.0,30.12,East,98,2.0,6.0,76,0.00,,,0.00,,2013-01-17 23:33:00,
2013-01-17 18:43:00,21.0,15.0,30.12,East,98,2.0,6.0,76,0.00,,,0.00,,2013-01-17 23:43:00,
2013-01-17 18:53:00,21.0,14.0,30.14,ESE,106,1.0,10.0,75,0.00,,,0.00,,2013-01-17 23:53:00,
2013-01-17 19:03:00,21.0,15.0,30.15,ESE,123,1.0,5.0,76,0.00,,,0.00,,2013-01-18 00:03:00,
2013-01-17 19:12:00,21.0,15.0,30.15,ESE,123,1.0,5.0,76,0.00,,,0.00,,2013-01-18 00:12:00,
2013-01-17 19:23:00,20.0,14.0,30.15,NE,56,4.0,9.0,78,0.00,,,0.00,,2013-01-18 00:23:00,
2013-01-17 19:33:00,20.0,14.0,30.15,NE,56,4.0,9.0,78,0.00,,,0.00,,2013-01-18 00:33:00,
2013-01-17 19:42:00,20.0,15.0,30.14,ENE,69,5.0,10.0,79,0.00,,,0.00,,2013-01-18 00:42:00,
2013-01-17 19:53:00,20.0,15.0,30.16,East,90,4.0,9.0,80,0.00,,,0.00,,2013-01-18 00:53:00,
2013-01-17 20:03:00,20.0,15.0,30.16,NE,55,5.0,9.0,80,0.00,,,0.00,,2013-01-18 01:03:00,
2013-01-17 20:13:00,20.0,15.0,30.16,NE,55,5.0,9.0,80,0.00,,,0.00,,2013-01-18 01:13:00,
2013-01-17 20:23:00,19.0,14.0,30.15,ENE,59,1.0,6.0,81,0.00,,,0.00,,2013-01-18 01:23:00,
2013-01-17 20:33:00,19.0,14.0,30.14,ESE,104,3.0,6.0,81,0.00,,,0.00,,2013-01-18 01:33:00,
2013-01-17 20:43:00,19.0,14.0,30.14,ESE,104,3.0,6.0,81,0.00,,,0.00,,2013-01-18 01:43:00,
2013-01-17 20:53:00,19.0,14.0,30.15,East,85,4.0,9.0,81,0.00,,,0.00,,2013-01-18 01:53:00,
2013-01-17 21:03:00,19.0,14.0,30.15,ENE,69,9.0,11.0,81,0.00,,,0.00,,2013-01-18 02:03:00,
2013-01-17 21:12:00,19.0,14.0,30.15,ENE,69,9.0,11.0,81,0.00,,,0.00,,2013-01-18 02:12:00,
2013-01-17 21:23:00,19.0,15.0,30.15,NE,44,4.0,10.0,84,0.00,,,0.00,,2013-01-18 02:23:00,
2013-01-17 21:33:00,19.0,15.0,30.15,NE,46,6.0,13.0,85,0.00,,,0.00,,2013-01-18 02:33:00,
2013-01-17 21:43:00,19.0,15.0,30.15,NE,46,6.0,13.0,85,0.00,,,0.00,,2013-01-18 02:43:00,
2013-01-17 21:53:00,19.0,16.0,30.16,NE,55,3.0,10.0,86,0.00,,,0.00,,2013-01-18 02:53:00,
2013-01-17 22:02:00,19.0,16.0,30.16,NE,44,5.0,14.0,88,0.00,,,0.00,,2013-01-18 03:02:00,
2013-01-17 22:12:00,19.0,16.0,30.16,NE,44,5.0,14.0,88,0.00,,,0.00,,2013-01-18 03:12:00,
2013-01-17 22:23:00,18.0,15.0,30.16,NE,52,7.0,11.0,89,0.00,,,0.00,,2013-01-18 03:23:00,
2013-01-17 22:33:00,18.0,15.0,30.16,NE,46,4.0,11.0,89,0.00,,,0.00,,2013-01-18 03:33:00,
2013-01-17 22:42:00,18.0,15.0,30.16,NE,46,4.0,11.0,89,0.00,,,0.00,,2013-01-18 03:42:00,
2013-01-17 22:53:00,18.0,16.0,30.16,NE,42,3.0,10.0,90,0.00,,,0.00,,2013-01-18 03:53:00,
2013-01-17 23:02:00,17.0,15.0,30.15,NE,55,4.0,8.0,90,0.00,,,0.00,,2013-01-18 04:02:00,
2013-01-17 23:12:00,17.0,15.0,30.15,NE,55,4.0,8.0,90,0.00,,,0.00,,2013-01-18 04:12:00,
2013-01-17 23:22:00,17.0,15.0,30.15,NE,53,3.0,7.0,90,0.00,,,0.00,,2013-01-18 04:22:00,
2013-01-17 23:33:00,17.0,15.0,30.16,ENE,59,0.0,4.0,90,0.00,,,0.00,,2013-01-18 04:33:00,
2013-01-17 23:42:00,17.0,15.0,30.16,ENE,59,0.0,4.0,90,0.00,,,0.00,,2013-01-18 04:42:00,
2013-01-17 23:53:00,16.0,14.0,30.16,ENE,57,1.0,5.0,90,0.00,,,0.00,,2013-01-18 04:53:00,